Whidbey Island, WA

5:51 AM PDT on May 24, 2017 (GMT -0700)
Whidbey Island Naval Air Station

Weather History for KNUW - May, 2013

Change the Weather History Date:

Tuesday, May 14, 2013

  Actual Average Record
Temperature  
Mean Temperature 50 °F -  
Max Temperature 57 °F 56 °F 72 °F (2005)
Min Temperature 43 °F 42 °F 37 °F (1999)
Degree Days  
Heating Degree Days 15    
Moisture  
Dew Point 44 °F    
Average Humidity 79    
Maximum Humidity 93    
Minimum Humidity 59    
Precipitation  
Precipitation 0.00 in - - ()
Sea Level Pressure  
Sea Level Pressure 30.21 in    
Wind  
Wind Speed 5 mph (SW)    
Max Wind Speed 12 mph    
Max Gust Speed -    
Visibility 10 miles    
Events Rain    
Averages and records for this station are not official NWS values.
T = Trace of Precipitation, MM = Missing Value Source: NWS Daily Summary

Daily Weather History Graph

Daily Weather History Graph

Search for Another Location

Airport or City:

Trip Planner

Search our weather history database for the weather conditions in past years. The results will help you decide how hot, cold, wet, or windy it might be!

Date:

Astronomy

May. 14, 2013 Rise Set
Actual Time 5:31 AM PDT 8:43 PM PDT
Civil Twilight 4:54 AM PDT 9:20 PM PDT
Nautical Twilight 4:05 AM PDT 10:09 PM PDT
Astronomical Twilight 3:04 AM PDT 11:12 PM PDT
Moon 9:17 AM PDT (5/14) No Moon Set
Length of Visible Light 16h 26m
Length of Day
15h 11m
Waxing Crescent, 19% of the Moon is Illuminated
May 14
Waxing Crescent
May 17
First Quarter
May 24
Full
May 31
Last Quarter
Jun 8
New

Hourly Weather History & Observations

Time (PDT) Temp. Windchill Dew Point Humidity Pressure Visibility Wind Dir Wind Speed Gust Speed Precip Events Conditions
12:56 AM 44.1 °F 42.5 °F 41.0 °F 89% 30.22 in 10.0 mi ENE 3.5 mph - N/A   Scattered Clouds
1:56 AM 45.0 °F 42.6 °F 42.1 °F 90% 30.21 in 10.0 mi East 4.6 mph - N/A   Scattered Clouds
2:56 AM 43.0 °F 40.3 °F 41.0 °F 93% 30.22 in 10.0 mi ESE 4.6 mph - N/A   Mostly Cloudy
3:56 AM 46.9 °F - 43.0 °F 86% 30.22 in 10.0 mi East 11.5 mph - N/A   Overcast
4:56 AM 46.9 °F - 44.1 °F 90% 30.24 in 10.0 mi Calm Calm - N/A   Mostly Cloudy
5:56 AM 46.9 °F - 44.1 °F 90% 30.23 in 10.0 mi ESE 5.8 mph - 0.00 in Rain Light Rain
6:27 AM 48.2 °F - 44.6 °F 87% 30.23 in 10.0 mi Calm Calm - 0.00 in   Overcast
6:56 AM 48.9 °F - 44.1 °F 83% 30.25 in 9.0 mi East 4.6 mph - 0.00 in   Mostly Cloudy
7:56 AM 51.1 °F - 45.0 °F 80% 30.25 in 10.0 mi SSE 6.9 mph - N/A   Overcast
8:56 AM 53.1 °F - 45.0 °F 74% 30.24 in 10.0 mi SE 8.1 mph - N/A   Overcast
9:56 AM 53.1 °F - 44.1 °F 71% 30.24 in 10.0 mi SE 8.1 mph - N/A   Overcast
10:56 AM 52.0 °F - 45.0 °F 77% 30.24 in 10.0 mi WNW 6.9 mph - N/A   Overcast
11:56 AM 53.1 °F - 46.0 °F 77% 30.24 in 10.0 mi West 6.9 mph - N/A   Overcast
12:56 PM 54.0 °F - 46.0 °F 75% 30.22 in 10.0 mi WNW 6.9 mph - N/A   Overcast
1:56 PM 55.0 °F - 46.0 °F 72% 30.22 in 10.0 mi NW 6.9 mph - N/A   Overcast
2:56 PM 55.9 °F - 45.0 °F 67% 30.21 in 10.0 mi WNW 4.6 mph - N/A   Overcast
3:56 PM 57.0 °F - 43.0 °F 59% 30.19 in 10.0 mi West 5.8 mph - N/A   Mostly Cloudy
4:56 PM 55.9 °F - 44.1 °F 64% 30.18 in 10.0 mi West 6.9 mph - N/A   Mostly Cloudy
5:56 PM 55.0 °F - 45.0 °F 69% 30.18 in 10.0 mi WNW 4.6 mph - N/A   Mostly Cloudy
6:56 PM 54.0 °F - 43.0 °F 66% 30.17 in 10.0 mi West 4.6 mph - N/A   Mostly Cloudy
7:56 PM 52.0 °F - 43.0 °F 71% 30.17 in 10.0 mi WSW 6.9 mph - N/A   Overcast
8:56 PM 50.0 °F - 45.0 °F 83% 30.16 in 10.0 mi Calm Calm - N/A   Overcast
9:56 PM 50.0 °F - 45.0 °F 83% 30.17 in 10.0 mi Calm Calm - N/A   Overcast
10:56 PM 50.0 °F - 45.0 °F 83% 30.16 in 10.0 mi SW 4.6 mph - N/A   Overcast
11:56 PM 48.9 °F - 46.0 °F 90% 30.15 in 10.0 mi SSW 3.5 mph - N/A   Mostly Cloudy